Regional Weather Roundup
Issued by NWS

Home | Current Version | Previous Version | Graphics & Text | Print | Product List | Glossary On
Versions: 1 2 3 4 5 6 7 8 9 10 11 12 13 14 15 16 17 18 19 20 21 22 23 24 25 26 27 28 29 30 31 32 33 34 35 36 37 38 39 40 41 42 43 44 45 46 47 48 49 50
000
ASUS43 KDMX 201506
RWRIA

WEATHER ROUNDUP FOR IOWA
NATIONAL WEATHER SERVICE DES MOINES IA
1000 AM CDT THU JUL 20 2017

NOTE: "FAIR" INDICATES FEW OR NO CLOUDS BELOW 12,000 FEET WITH NO
SIGNIFICANT WEATHER AND/OR OBSTRUCTIONS TO VISIBILITY.

* - THESE STATIONS ARE NOT NWS STATIONS...THUS NOT UNDER NWS
QUALITY CONTROL.  THEY ALSO DO NOT REPORT WEATHER SUCH
AS PRECIPITATION OR FOG.

IAZ001>003-012>014-020>022-031>034-043>046-201600-
   NORTHWEST IOWA

CITY           SKY/WX    TMP DP  RH WIND       PRES   REMARKS
CARROLL *      SUNNY     86  75  70 VRB7      29.97S HX  95
CHEROKEE *     MOSUNNY   82  71  69 E10       29.99S HX  86
DENISON *      CLOUDY    86  75  70 VRB5      29.98S HX  95
ORANGE CITY *  PTSUNNY   82  70  65 E10       30.00S HX  86
SHELDON *      MOSUNNY   81  70  69 NE12      30.00R HX  84
SIOUX CITY     SUNNY     84  75  74 NE8       29.97R HX  92
SPENCER        MOSUNNY   82  69  64 E14       30.01R HX  85
STORM LAKE *   SUNNY     81  72  74 NE13      30.00S HX  84
$$

IAZ055>058-069>071-079>083-090>094-201600-
   SOUTHWEST IOWA

CITY           SKY/WX    TMP DP  RH WIND       PRES   REMARKS
ATLANTIC *     PTSUNNY   84  73  70 S8        29.98R HX  91
AUDUBON *      PTSUNNY   84  75  74 CALM      29.99R HX  92
CLARINDA *     SUNNY     84  73  70 SW9       30.01F HX  91
COUNCIL BLFS * PTSUNNY   84  75  74 SW9       29.97S HX  92
CRESTON *      SUNNY     86  72  62 SW12G17   30.01S HX  92
HARLAN  *      CLOUDY    84  75  74 VRB5      30.00F HX  92
LAMONI         SUNNY     85  74  69 SW12      30.02R HX  92
RED OAK *      CLOUDY    84  73  70 S8        29.97F HX  91
SHENANDOAH *   SUNNY     84  73  70 SW9       29.99S HX  91
$$

IAZ047>049-059>061-072>074-084-201600-
   CENTRAL IOWA

CITY           SKY/WX    TMP DP  RH WIND       PRES   REMARKS
AMES           SUNNY     84  75  74 NW6       29.97R HX  92
ANKENY *       SUNNY     86  72  62 W8        29.97S HX  92
BOONE *        SUNNY     84  73  70 NW6       29.97S HX  91
CHARITON *     SUNNY     88  72  58 SW9G18    29.98F HX  94
DES MOINES     PTSUNNY   88  73  61 W8        29.96S HX  95
GRINNELL*      SUNNY     84  73  70 W7        29.98S HX  90
KNOXVILLE *    SUNNY     86  72  62 W12G17    29.96F HX  92
MARSHALLTOWN   CLOUDY    84  75  74 NW5       29.97S HX  92
NEWTON *       SUNNY     86  75  70 SW6       29.98S HX  95
PELLA *        SUNNY     87  72  61 W9        29.98S HX  93
PERRY *          N/A     84  75  75 W3        29.98R HX  92
$$

IAZ004>006-015-016-023>025-035-036-201600-
   NORTH CENTRAL IOWA

CITY           SKY/WX    TMP DP  RH WIND       PRES   REMARKS
ALGONA *       CLOUDY    77  73  88 NE13      30.01R
CLARION *      SUNNY     81  75  83 NE6       29.98S HX  86
ESTHERVILLE    MOSUNNY   76  71  85 NE12      30.01F
FORT DODGE *   SUNNY     82  72  69 NE6       29.99S HX  87
MASON CITY     CLOUDY    75  72  90 NE10      30.02R FOG
FOREST CITY *  CLOUDY    77  73  88 NE8       30.00S
WEBSTER CITY * SUNNY     84  75  74 NE6       29.96R HX  92
IOWA FALLS *     N/A     82  75  79 CALM      29.99S HX  89
$$

IAZ007>011-017>019-026>030-037>042-050>054-066-201600-
   NORTHEAST IOWA

CITY           SKY/WX    TMP DP  RH WIND       PRES   REMARKS
CEDAR RAPIDS   CLOUDY    79  78  97 S6        29.98S HX  83
CHARLES CITY * CLOUDY    75  73  94 E7        30.00S
CLINTON *      CLOUDY    75  72  90 SE9       30.00F
DECORAH *        N/A     73  70  88 SE3       30.01R
DUBUQUE        MOSUNNY   74  70  87 S7G23     30.01R
MONTICELLO *   MOSUNNY   79  72  78 SE8       29.99S HX  82
OELWEIN *      SUNNY     77  73  88 SE7G13    29.99R
WATERLOO       CLOUDY    83  74  74 SE6       29.95S HX  89
$$

IAZ064-065-067-068-078-201600-
   EAST CENTRAL IOWA

CITY           SKY/WX    TMP DP  RH WIND       PRES   REMARKS
DAVENPORT      CLOUDY    76  71  85 S9        30.02S
IOWA CITY      CLOUDY    82  76  81 SE6       29.99F HX  89
MT. PLEASANT * CLOUDY    88  71  57 W10       30.00S HX  94
MUSCATINE *    CLOUDY    82  73  74 S7        29.99S HX  88
QUAD CITIES    CLOUDY    79  72  79 SE6       30.00S HX  82
$$

IAZ062-063-075>077-085>089-095>099-201600-
   SOUTHEAST IOWA

CITY           SKY/WX    TMP DP  RH WIND       PRES   REMARKS
BURLINGTON     MOSUNNY   86  76  71 CALM      30.01R HX  96
FAIRFIELD *    CLOUDY    88  72  58 SW10      29.99S HX  94
FORT MADISON * CLOUDY    84  75  74 SW9       30.01S HX  92
KEOKUK *       SUNNY     88  75  66 MISG      29.99F HX  97
OSKALOOSA *      N/A     87  73  62 W10       29.99S HX  94
CENTERVILLE *    N/A     86  73  66 SW14      30.02S HX  93
OTTUMWA        SUNNY     90  71  53 W14G21    29.98R HX  96
WASHINGTON *   MOSUNNY   84  75  74 S3        30.00S HX  92
$$

ABBREVIATIONS USED IN REMARKS
   TC - TEMPERATURES IN CELSIUS
  WCI - WIND CHILL INDEX
   HX - HEAT INDEX
  VSB - VISIBILITY
$$





USA.gov is the U.S. government's official web portal to all federal, state and local government web resources and services.